DARAJ65 WMSA-VOPB

Flight info

Callsign DARAJ65
Flight time 1h 45m
Altitude FL400
Route SUKA2N SUKAT A457 VPG Y337 GIVAL P628 PPB
Aircraft CL60/M-SADE3FGHIJ3J4J7P2RWXY/HB1D1

Departure

Time 2026-04-19 00:42
Airport Sultan Abdul Aziz Shah International Airport (WMSA)

Arrival

Time 2026-04-19 02:27
Airport Veer Savarkar International Airport / INS Utkrosh (VOPB)
Time Latitude Longitude Altitude Speed Heading
2026-04-19 00:20 3.13623 101.55149 58 ft 0 kts 142°
2026-04-19 00:33 3.13612 101.55150 59 ft 12 kts 206°
2026-04-19 00:34 3.13501 101.54923 60 ft 10 kts 193°
2026-04-19 00:34 3.13424 101.54947 60 ft 18 kts 152°
2026-04-19 00:34 3.13262 101.55040 62 ft 28 kts 148°
2026-04-19 00:35 3.13089 101.55142 66 ft 28 kts 150°
2026-04-19 00:35 3.12922 101.55240 74 ft 26 kts 149°
2026-04-19 00:35 3.12766 101.55332 80 ft 26 kts 149°
2026-04-19 00:35 3.12605 101.55428 82 ft 27 kts 150°
2026-04-19 00:36 3.12430 101.55529 82 ft 29 kts 150°
2026-04-19 00:36 3.12239 101.55618 84 ft 30 kts 150°
2026-04-19 00:36 3.12057 101.55728 85 ft 31 kts 149°
2026-04-19 00:36 3.11857 101.55843 82 ft 33 kts 150°
2026-04-19 00:37 3.11681 101.55906 79 ft 21 kts 206°
2026-04-19 00:37 3.11655 101.55766 76 ft 24 kts 316°
2026-04-19 00:37 3.11667 101.55756 77 ft 0 kts 333°
2026-04-19 00:39 3.11732 101.55722 80 ft 31 kts 332°
2026-04-19 00:39 3.11776 101.55699 81 ft 0 kts 332°
2026-04-19 00:40 3.11819 101.55674 82 ft 13 kts 328°
2026-04-19 00:41 3.11908 101.55619 84 ft 22 kts 329°
2026-04-19 00:41 3.12331 101.55371 83 ft 124 kts 329°
2026-04-19 00:41 3.13329 101.54785 104 ft 201 kts 330°
2026-04-19 00:41 3.14657 101.53996 394 ft 245 kts 329°
2026-04-19 00:42 3.16059 101.53152 702 ft 241 kts 329°
2026-04-19 00:42 3.17514 101.52286 923 ft 246 kts 330°
2026-04-19 00:42 3.19125 101.51349 1888 ft 276 kts 330°
2026-04-19 00:42 3.20665 101.50452 3951 ft 260 kts 330°
2026-04-19 00:43 3.22163 101.49579 5712 ft 251 kts 330°
2026-04-19 00:43 3.23714 101.48676 6878 ft 264 kts 330°
2026-04-19 00:43 3.25371 101.47712 8055 ft 276 kts 330°
2026-04-19 00:43 3.27083 101.46716 9282 ft 283 kts 330°
2026-04-19 00:44 3.28830 101.45699 10497 ft 290 kts 330°
2026-04-19 00:44 3.30646 101.44642 11214 ft 314 kts 330°
2026-04-19 00:44 3.32593 101.43509 12101 ft 328 kts 330°
2026-04-19 00:44 3.34514 101.42217 13110 ft 337 kts 318°
2026-04-19 00:45 3.36000 101.40356 14124 ft 344 kts 302°
2026-04-19 00:45 3.37243 101.38267 15099 ft 350 kts 301°
2026-04-19 00:45 3.38476 101.36195 16038 ft 355 kts 302°
2026-04-19 00:45 3.39722 101.34104 16931 ft 361 kts 301°
2026-04-19 00:46 3.40990 101.31978 17803 ft 366 kts 302°
2026-04-19 00:46 3.42313 101.29769 18654 ft 371 kts 302°
2026-04-19 00:46 3.43648 101.27541 19479 ft 376 kts 302°
2026-04-19 00:46 3.45002 101.25283 20278 ft 380 kts 302°
2026-04-19 00:47 3.46384 101.22979 21054 ft 384 kts 302°
2026-04-19 00:47 3.47760 101.20685 21764 ft 390 kts 302°
2026-04-19 00:47 3.49191 101.18301 22496 ft 394 kts 302°
2026-04-19 00:47 3.50635 101.15896 23234 ft 398 kts 302°
2026-04-19 00:48 3.52092 101.13470 23981 ft 401 kts 302°
2026-04-19 00:48 3.53548 101.11045 24703 ft 404 kts 301°
2026-04-19 00:48 3.54998 101.08630 25366 ft 408 kts 301°
2026-04-19 00:48 3.56511 101.06111 26019 ft 412 kts 301°
2026-04-19 00:49 3.58153 101.03610 26659 ft 414 kts 309°
2026-04-19 00:49 3.60278 101.01623 27259 ft 416 kts 325°
2026-04-19 00:49 3.62961 101.00202 27795 ft 420 kts 335°
2026-04-19 00:49 3.65743 100.98955 28305 ft 426 kts 335°
2026-04-19 00:50 3.68581 100.97677 28862 ft 429 kts 335°
2026-04-19 00:50 3.71366 100.96422 29383 ft 433 kts 335°
2026-04-19 00:50 3.74219 100.95137 29911 ft 436 kts 335°
2026-04-19 00:50 3.77153 100.93815 30430 ft 440 kts 335°
2026-04-19 00:51 3.80090 100.92493 30916 ft 443 kts 335°
2026-04-19 00:51 3.82933 100.91214 31351 ft 446 kts 334°
2026-04-19 00:51 3.85919 100.89870 31790 ft 450 kts 334°
2026-04-19 00:51 3.88887 100.88534 32194 ft 453 kts 334°
2026-04-19 00:52 3.91890 100.87182 32582 ft 456 kts 334°
2026-04-19 00:52 3.94686 100.85924 32964 ft 459 kts 334°
2026-04-19 00:52 3.97731 100.84554 33385 ft 461 kts 334°
2026-04-19 00:52 4.00766 100.83188 33807 ft 462 kts 334°
2026-04-19 00:53 4.03802 100.81823 34301 ft 461 kts 334°
2026-04-19 00:53 4.06837 100.80457 34848 ft 459 kts 335°
2026-04-19 00:53 4.09878 100.79089 35402 ft 457 kts 334°
2026-04-19 00:53 4.12789 100.77780 35889 ft 455 kts 334°
2026-04-19 00:54 4.15663 100.76486 36320 ft 454 kts 334°
2026-04-19 00:54 4.18539 100.75193 36697 ft 454 kts 335°
2026-04-19 00:54 4.21431 100.73896 37063 ft 454 kts 335°
2026-04-19 00:54 4.24377 100.72575 37423 ft 453 kts 335°
2026-04-19 00:55 4.27287 100.71270 37781 ft 453 kts 335°
2026-04-19 00:55 4.30246 100.69942 38126 ft 452 kts 335°
2026-04-19 00:55 4.33203 100.68616 38455 ft 452 kts 335°
2026-04-19 00:55 4.36138 100.67299 38788 ft 451 kts 335°
2026-04-19 00:56 4.39022 100.66004 39114 ft 450 kts 335°
2026-04-19 00:56 4.41964 100.64684 39440 ft 450 kts 335°
2026-04-19 00:56 4.44934 100.63352 39752 ft 449 kts 335°
2026-04-19 00:56 4.47902 100.62019 39885 ft 451 kts 335°
2026-04-19 00:57 4.53850 100.59349 39884 ft 458 kts 335°
2026-04-19 00:57 4.60015 100.56580 39885 ft 464 kts 335°
2026-04-19 00:58 4.66143 100.53827 39885 ft 470 kts 335°
2026-04-19 00:58 4.72421 100.51006 39886 ft 473 kts 335°
2026-04-19 00:59 4.78497 100.48276 39889 ft 473 kts 335°
2026-04-19 00:59 4.84738 100.45470 39890 ft 471 kts 335°
2026-04-19 01:00 4.90732 100.42776 39897 ft 470 kts 335°
2026-04-19 01:00 4.96842 100.40029 39894 ft 470 kts 335°
2026-04-19 01:01 5.02959 100.37278 39895 ft 470 kts 335°
2026-04-19 01:01 5.09109 100.34512 39884 ft 470 kts 335°
2026-04-19 01:02 5.15029 100.31848 39871 ft 470 kts 335°
2026-04-19 01:02 5.21104 100.29114 39863 ft 470 kts 335°
2026-04-19 01:03 5.26834 100.25811 39859 ft 468 kts 322°
2026-04-19 01:03 5.31606 100.21242 39863 ft 467 kts 308°
2026-04-19 01:04 5.35584 100.16075 39867 ft 467 kts 307°
2026-04-19 01:04 5.39544 100.10886 39871 ft 468 kts 307°
2026-04-19 01:05 5.43425 100.05803 39874 ft 467 kts 307°
2026-04-19 01:05 5.47283 100.00750 39873 ft 467 kts 307°
2026-04-19 01:06 5.51151 99.95686 39876 ft 467 kts 307°
2026-04-19 01:06 5.55052 99.90579 39873 ft 466 kts 307°
2026-04-19 01:07 5.59048 99.85346 39873 ft 467 kts 307°
2026-04-19 01:07 5.63068 99.80082 39874 ft 467 kts 307°
2026-04-19 01:08 5.67108 99.74791 39874 ft 466 kts 307°
2026-04-19 01:08 5.71170 99.69470 39876 ft 466 kts 307°
2026-04-19 01:09 5.75276 99.64091 39875 ft 467 kts 307°
2026-04-19 01:09 5.79329 99.58779 39875 ft 466 kts 307°
2026-04-19 01:10 5.83450 99.53378 39875 ft 466 kts 307°
2026-04-19 01:10 5.87505 99.48062 39875 ft 467 kts 307°
2026-04-19 01:11 5.91615 99.42672 39876 ft 467 kts 307°
2026-04-19 01:11 5.95696 99.37319 39875 ft 467 kts 307°
2026-04-19 01:12 5.99756 99.31991 39875 ft 467 kts 307°
2026-04-19 01:12 6.03796 99.26689 39871 ft 467 kts 306°
2026-04-19 01:13 6.07874 99.21336 39862 ft 467 kts 306°
2026-04-19 01:13 6.11853 99.16111 39857 ft 467 kts 306°
2026-04-19 01:14 6.15765 99.10972 39854 ft 467 kts 307°
2026-04-19 01:14 6.19689 99.05816 39854 ft 467 kts 307°
2026-04-19 01:15 6.23689 99.00560 39854 ft 467 kts 307°
2026-04-19 01:15 6.27721 98.95260 39854 ft 467 kts 307°
2026-04-19 01:16 6.31808 98.89886 39854 ft 466 kts 306°
2026-04-19 01:16 6.35844 98.84578 39852 ft 466 kts 307°
2026-04-19 01:17 6.39947 98.79180 39855 ft 466 kts 307°
2026-04-19 01:17 6.43991 98.73857 39853 ft 466 kts 307°
2026-04-19 01:18 6.48105 98.68442 39862 ft 466 kts 307°
2026-04-19 01:18 6.52161 98.63100 39865 ft 465 kts 307°
2026-04-19 01:19 6.56266 98.57693 39865 ft 465 kts 307°
2026-04-19 01:19 6.60321 98.52350 39867 ft 465 kts 307°
2026-04-19 01:20 6.64409 98.46961 39870 ft 465 kts 307°
2026-04-19 01:20 6.68495 98.41574 39876 ft 465 kts 307°
2026-04-19 01:21 6.72606 98.36152 39873 ft 465 kts 307°
2026-04-19 01:21 6.76585 98.30902 39875 ft 465 kts 307°
2026-04-19 01:22 6.80650 98.25537 39874 ft 465 kts 307°
2026-04-19 01:22 6.84705 98.20184 39877 ft 465 kts 307°
2026-04-19 01:23 6.88750 98.14841 39876 ft 465 kts 307°
2026-04-19 01:23 6.92823 98.09461 39877 ft 465 kts 307°
2026-04-19 01:24 6.96854 98.04133 39875 ft 465 kts 307°
2026-04-19 01:24 7.01255 97.99174 39878 ft 465 kts 319°
2026-04-19 01:25 7.06569 97.95125 39875 ft 465 kts 323°
2026-04-19 01:25 7.11991 97.91113 39875 ft 465 kts 323°
2026-04-19 01:26 7.17227 97.87237 39872 ft 465 kts 323°
2026-04-19 01:26 7.22500 97.83332 39864 ft 465 kts 323°
2026-04-19 01:27 7.27720 97.79466 39860 ft 465 kts 323°
2026-04-19 01:27 7.32873 97.75648 39856 ft 464 kts 323°
2026-04-19 01:28 7.38051 97.71811 39852 ft 464 kts 323°
2026-04-19 01:28 7.43205 97.67990 39852 ft 465 kts 323°
2026-04-19 01:29 7.48520 97.64049 39854 ft 465 kts 323°
2026-04-19 01:29 7.53933 97.60034 39866 ft 465 kts 323°
2026-04-19 01:30 7.59381 97.55992 39871 ft 465 kts 323°
2026-04-19 01:30 7.64902 97.51894 39874 ft 465 kts 323°
2026-04-19 01:31 7.70383 97.47833 39876 ft 464 kts 323°
2026-04-19 01:31 7.75865 97.43771 39875 ft 464 kts 323°
2026-04-19 01:32 7.81274 97.39762 39876 ft 465 kts 323°
2026-04-19 01:32 7.86763 97.35691 39875 ft 466 kts 323°
2026-04-19 01:33 7.92224 97.31641 39875 ft 466 kts 323°
2026-04-19 01:33 7.97698 97.27579 39875 ft 465 kts 323°
2026-04-19 01:34 8.03077 97.23505 39874 ft 464 kts 319°
2026-04-19 01:34 8.07602 97.18493 39873 ft 464 kts 304°
2026-04-19 01:35 8.11126 97.12756 39874 ft 464 kts 301°
2026-04-19 01:35 8.14651 97.06889 39875 ft 465 kts 301°
2026-04-19 01:36 8.18160 97.01047 39876 ft 465 kts 301°
2026-04-19 01:36 8.21674 96.95197 39875 ft 466 kts 301°
2026-04-19 01:37 8.25223 96.89285 39874 ft 465 kts 301°
2026-04-19 01:37 8.28732 96.83439 39876 ft 464 kts 301°
2026-04-19 01:38 8.32307 96.77481 39882 ft 464 kts 301°
2026-04-19 01:38 8.35794 96.71668 39886 ft 464 kts 301°
2026-04-19 01:39 8.39360 96.65720 39884 ft 464 kts 301°
2026-04-19 01:39 8.42856 96.59886 39885 ft 464 kts 301°
2026-04-19 01:40 8.46420 96.53937 39889 ft 464 kts 301°
2026-04-19 01:40 8.49913 96.48104 39890 ft 465 kts 301°
2026-04-19 01:41 8.53464 96.42171 39890 ft 465 kts 301°
2026-04-19 01:41 8.56973 96.36305 39885 ft 465 kts 301°
2026-04-19 01:42 8.60503 96.30402 39877 ft 465 kts 301°
2026-04-19 01:43 8.65802 96.21537 39874 ft 465 kts 301°
2026-04-19 01:43 8.69292 96.15693 39874 ft 466 kts 301°
2026-04-19 01:44 8.72848 96.09739 39876 ft 466 kts 301°
2026-04-19 01:44 8.76351 96.03869 39876 ft 466 kts 301°
2026-04-19 01:45 8.79914 95.97892 39874 ft 466 kts 301°
2026-04-19 01:45 8.83415 95.92013 39875 ft 466 kts 301°
2026-04-19 01:46 8.86945 95.86083 39874 ft 466 kts 301°
2026-04-19 01:46 8.90520 95.80074 39881 ft 465 kts 301°
2026-04-19 01:47 8.94056 95.74129 39890 ft 465 kts 301°
2026-04-19 01:47 8.97609 95.68153 39894 ft 465 kts 301°
2026-04-19 01:48 9.01158 95.62179 39897 ft 465 kts 302°
2026-04-19 01:48 9.04635 95.56325 39898 ft 466 kts 302°
2026-04-19 01:49 9.08205 95.50312 39899 ft 466 kts 302°
2026-04-19 01:49 9.11750 95.44337 39898 ft 466 kts 301°
2026-04-19 01:50 9.15281 95.38382 39899 ft 466 kts 302°
2026-04-19 01:50 9.18747 95.32535 39898 ft 466 kts 301°
2026-04-19 01:51 9.22213 95.26684 39897 ft 467 kts 301°
2026-04-19 01:51 9.25758 95.20698 39884 ft 467 kts 301°
2026-04-19 01:52 9.29262 95.14778 39876 ft 467 kts 302°
2026-04-19 01:52 9.32778 95.08835 39876 ft 467 kts 301°
2026-04-19 01:53 9.36284 95.02904 39875 ft 467 kts 301°
2026-04-19 01:53 9.39833 94.96901 39876 ft 468 kts 301°
2026-04-19 01:54 9.43355 94.90939 39876 ft 468 kts 301°
2026-04-19 01:54 9.46882 94.84965 39876 ft 468 kts 301°
2026-04-19 01:55 9.50402 94.79000 39884 ft 468 kts 301°
2026-04-19 01:55 9.53928 94.73024 39896 ft 468 kts 301°
2026-04-19 01:56 9.57481 94.66997 39898 ft 469 kts 301°
2026-04-19 01:56 9.61019 94.60993 39898 ft 469 kts 301°
2026-04-19 01:57 9.64563 94.54976 39899 ft 469 kts 301°
2026-04-19 01:57 9.68120 94.48934 39898 ft 468 kts 301°
2026-04-19 01:58 9.71690 94.42940 39899 ft 468 kts 304°
2026-04-19 01:58 9.76179 94.37718 39896 ft 467 kts 314°
2026-04-19 01:59 9.80905 94.32753 39898 ft 468 kts 314°
2026-04-19 01:59 9.85649 94.27766 39899 ft 467 kts 314°
2026-04-19 02:00 9.90491 94.22677 39896 ft 467 kts 314°
2026-04-19 02:00 9.95201 94.17726 39893 ft 466 kts 314°
2026-04-19 02:01 9.99135 94.13590 39883 ft 466 kts 314°
2026-04-19 02:01 10.02712 94.09827 39877 ft 467 kts 314°
2026-04-19 02:02 10.07557 94.04731 39873 ft 468 kts 314°
2026-04-19 02:02 10.09944 94.02218 39620 ft 468 kts 314°
2026-04-19 02:02 10.12206 93.99837 39073 ft 460 kts 314°
2026-04-19 02:02 10.14442 93.97483 38514 ft 452 kts 314°
2026-04-19 02:03 10.16768 93.95034 37948 ft 450 kts 314°
2026-04-19 02:03 10.19073 93.92606 37319 ft 449 kts 314°
2026-04-19 02:03 10.21388 93.90168 36694 ft 449 kts 314°
2026-04-19 02:03 10.23718 93.87713 36060 ft 450 kts 314°
2026-04-19 02:04 10.26061 93.85244 35424 ft 451 kts 314°
2026-04-19 02:04 10.28392 93.82786 34792 ft 452 kts 314°
2026-04-19 02:04 10.30686 93.80367 34158 ft 454 kts 315°
2026-04-19 02:04 10.33076 93.77847 33493 ft 456 kts 315°
2026-04-19 02:05 10.35434 93.75360 32842 ft 456 kts 315°
2026-04-19 02:05 10.37776 93.72889 32213 ft 454 kts 315°
2026-04-19 02:05 10.40063 93.70474 31563 ft 450 kts 315°
2026-04-19 02:05 10.42347 93.68062 30946 ft 444 kts 315°
2026-04-19 02:06 10.44602 93.65681 30330 ft 439 kts 315°
2026-04-19 02:06 10.46801 93.63358 29722 ft 435 kts 315°
2026-04-19 02:06 10.49007 93.61028 29119 ft 430 kts 315°
2026-04-19 02:06 10.51137 93.58778 28531 ft 426 kts 315°
2026-04-19 02:07 10.53296 93.56497 27938 ft 423 kts 315°
2026-04-19 02:07 10.55404 93.54268 27354 ft 419 kts 315°
2026-04-19 02:07 10.57509 93.52043 26776 ft 415 kts 315°
2026-04-19 02:07 10.59583 93.49851 26204 ft 411 kts 315°
2026-04-19 02:08 10.61669 93.47646 25632 ft 408 kts 315°
2026-04-19 02:08 10.63673 93.45527 25079 ft 405 kts 315°
2026-04-19 02:08 10.65703 93.43379 24521 ft 402 kts 315°
2026-04-19 02:08 10.67697 93.41269 23971 ft 398 kts 315°
2026-04-19 02:09 10.69672 93.39179 23428 ft 393 kts 315°
2026-04-19 02:09 10.71650 93.37085 22883 ft 388 kts 314°
2026-04-19 02:09 10.73558 93.35065 22357 ft 381 kts 314°
2026-04-19 02:09 10.75427 93.33087 21845 ft 375 kts 314°
2026-04-19 02:10 10.77279 93.31126 21333 ft 369 kts 314°
2026-04-19 02:10 10.79106 93.29192 20831 ft 364 kts 314°
2026-04-19 02:10 10.80908 93.27283 20334 ft 359 kts 314°
2026-04-19 02:10 10.82666 93.25421 19850 ft 354 kts 314°
2026-04-19 02:11 10.84396 93.23589 19374 ft 350 kts 314°
2026-04-19 02:11 10.86087 93.21797 18908 ft 345 kts 314°
2026-04-19 02:11 10.87775 93.20009 18443 ft 341 kts 314°
2026-04-19 02:11 10.89446 93.18238 17983 ft 338 kts 314°
2026-04-19 02:12 10.91110 93.16475 17524 ft 334 kts 314°
2026-04-19 02:12 10.92731 93.14756 17076 ft 331 kts 314°
2026-04-19 02:12 10.94360 93.13030 16618 ft 329 kts 314°
2026-04-19 02:12 10.95973 93.11318 16168 ft 327 kts 314°
2026-04-19 02:13 10.97570 93.09625 15722 ft 324 kts 314°
2026-04-19 02:13 10.99152 93.07947 15286 ft 322 kts 314°
2026-04-19 02:13 11.00740 93.06262 14846 ft 319 kts 314°
2026-04-19 02:13 11.02304 93.04603 14417 ft 317 kts 314°
2026-04-19 02:14 11.03895 93.02914 13979 ft 315 kts 314°
2026-04-19 02:14 11.05442 93.01271 13559 ft 312 kts 314°
2026-04-19 02:14 11.07021 92.99594 13127 ft 310 kts 314°
2026-04-19 02:14 11.08566 92.97954 12708 ft 307 kts 314°
2026-04-19 02:15 11.10105 92.96319 12288 ft 305 kts 314°
2026-04-19 02:15 11.11579 92.94753 11881 ft 303 kts 314°
2026-04-19 02:15 11.13103 92.93134 11463 ft 301 kts 314°
2026-04-19 02:15 11.14618 92.91523 11042 ft 299 kts 314°
2026-04-19 02:16 11.16095 92.89954 10638 ft 296 kts 314°
2026-04-19 02:16 11.17598 92.88356 10223 ft 294 kts 314°
2026-04-19 02:16 11.19065 92.86796 9915 ft 287 kts 314°
2026-04-19 02:16 11.20469 92.85304 9551 ft 285 kts 314°
2026-04-19 02:17 11.21850 92.83836 9155 ft 284 kts 314°
2026-04-19 02:17 11.23208 92.82391 8780 ft 282 kts 314°
2026-04-19 02:17 11.24562 92.80951 8407 ft 279 kts 314°
2026-04-19 02:17 11.25906 92.79521 8037 ft 277 kts 314°
2026-04-19 02:18 11.27277 92.78062 7656 ft 275 kts 314°
2026-04-19 02:18 11.28620 92.76633 7290 ft 272 kts 314°
2026-04-19 02:18 11.29956 92.75211 6919 ft 270 kts 315°
2026-04-19 02:18 11.31307 92.73773 6547 ft 267 kts 315°
2026-04-19 02:19 11.32610 92.72386 6189 ft 265 kts 315°
2026-04-19 02:19 11.33923 92.70988 5823 ft 262 kts 315°
2026-04-19 02:19 11.35248 92.69577 5458 ft 260 kts 315°
2026-04-19 02:20 11.37761 92.66901 4762 ft 254 kts 315°
2026-04-19 02:20 11.39019 92.65561 4417 ft 250 kts 315°
2026-04-19 02:20 11.40279 92.64218 4056 ft 246 kts 315°
2026-04-19 02:20 11.41484 92.62934 3720 ft 236 kts 315°
2026-04-19 02:21 11.42627 92.61716 3423 ft 227 kts 315°
2026-04-19 02:21 11.43747 92.60581 3112 ft 219 kts 323°
2026-04-19 02:21 11.45124 92.59928 2786 ft 209 kts 353°
2026-04-19 02:21 11.46501 92.60101 2738 ft 187 kts 24°
2026-04-19 02:22 11.47666 92.60777 2735 ft 181 kts 33°
2026-04-19 02:22 11.48776 92.61534 2709 ft 179 kts 36°
2026-04-19 02:22 11.49822 92.62300 2705 ft 179 kts 37°
2026-04-19 02:22 11.50905 92.63104 2700 ft 179 kts 37°
2026-04-19 02:23 11.51984 92.63908 2609 ft 182 kts 37°
2026-04-19 02:23 11.53096 92.64737 2356 ft 179 kts 37°
2026-04-19 02:23 11.54095 92.65483 2151 ft 169 kts 37°
2026-04-19 02:23 11.55072 92.66212 1930 ft 160 kts 37°
2026-04-19 02:24 11.55985 92.66894 1748 ft 144 kts 36°
2026-04-19 02:24 11.56792 92.67496 1589 ft 125 kts 36°
2026-04-19 02:24 11.57534 92.68050 1325 ft 127 kts 36°
2026-04-19 02:24 11.58282 92.68608 1191 ft 127 kts 36°
2026-04-19 02:25 11.59033 92.69169 1029 ft 127 kts 37°
2026-04-19 02:25 11.59779 92.69726 874 ft 126 kts 37°
2026-04-19 02:25 11.60529 92.70286 700 ft 126 kts 37°
2026-04-19 02:25 11.61294 92.70859 529 ft 126 kts 37°
2026-04-19 02:26 11.62057 92.71430 362 ft 126 kts 37°
2026-04-19 02:26 11.62803 92.71989 191 ft 126 kts 37°
2026-04-19 02:26 11.63522 92.72517 63 ft 112 kts 36°
2026-04-19 02:26 11.64066 92.72921 33 ft 50 kts 36°
2026-04-19 02:27 11.64171 92.73017 30 ft 13 kts 79°
2026-04-19 02:27 11.64145 92.73118 29 ft 17 kts 121°
2026-04-19 02:27 11.64106 92.73152 29 ft 0 kts 179°